Location: Barrio Pajares
(40.5500°N, 4.1667°W)
Time: 15:36:57
(UTC+00:00)

Cosmos 1833 - Pass Details

Date: 18 April 2024
Orbit: 836 x 862 km, 70.9° (Epoch: 24 May)

Event Time Altitude Azimuth Distance (km) Brightness Sun altitude
Rises 19:16:55 0° 338° (NNW) 3,406 8.0 -4.0°
Reaches altitude 10° 19:19:25 10° 342° (NNW) 2,464 7.2 -4.5°
Maximum altitude 19:25:02 66° 64° (ENE) 914 4.3 -5.5°
Drops below altitude 10° 19:30:35 10° 147° (SSE) 2,440 6.1 -6.5°
Enters shadow 19:33:00 - 150° (SSE) 3,356 6.8 -6.9°
